www.pogodaiklimat.ru

Погода и климат >> Архив погоды >> Россия >> Свердловская область >> Екатеринбург


АРХИВ ПОГОДЫ в Екатеринбурге

Время (UTC), дата Ветер
(напр.,м/с)
 
Видим.   Явления Облачность Т
(С)
Тd
(С)
f
(%)
Тe
(С)
Тes
(С)
Комфортность P
(гПа)
Po
(гПа)
Тmin
(С)
Tmax
(С)
R
(мм)
R24
(мм)
S
(см)
03 21.04 З 6-12
{15}
50 км 4/3 600 м
[Sc Ci fib]
+5.0 -3.3 55 0 +1 по сезону 1005.2 971.3 +5.0
06 21.04 З 6-10
{12}
50 км 4/4 600 м
[Sc diur, vesp]
+5.1 -8.5 37 +1 +3 прохладно 1005.9 971.9 +3.8
09 21.04 З 7-13
{14}
50 км 8/4 600 м
[Cu hum Cs]
+4.2 -10.9 32 -1 +1 холодно 1007.7 973.6
12 21.04 З 6-10
{14}
50 км 10/10 600 м
[Sc diur, vesp]
+1.8 -10.1 41 -3 -3 очень
холодно
1008.9 974.4
15 21.04 З 4
{12}
20 км {ливн. осадки} 10/10 600 м
[Cb calv]
+0.7 -8.1 52 -4 -4 очень
холодно
1009.4 974.8 +5.2
18 21.04 З 5
{13}
10 км 6/6 600 м
[Cu hum]
-0.6 -6.8 63 -6 -6 очень
холодно
1010.1 975.3
21 21.04 З 4
{10}
10 км 3/0
[Ci fib]
-0.9 -6.7 65 -6 -6 холодно 1011.1 976.2
00 22.04 З 4
{11}
10 км ясно -1.6 -6.3 70 -7 -7 холодно 1012.3 977.3
03 22.04 З 4 50 км ясно +0.2 -7.1 58 -5 -3 холодно 1013.8 979.0 -1.8
06 22.04 ЮЗ 5-11
{11}
50 км ясно +4.7 -10.9 31 +1 +6 прохладно 1013.6 979.3
09 22.04 З 4
{12}
50 км 4/0
[Ci]
+8.4 -11.6 23 +6 +13 по сезону 1012.5 978.7
12 22.04 ЮЗ 4
{10}
50 км 10/5 1000 м
[Sc Ci]
+8.8 -12.4 21 +7 +8 по сезону 1011.1 977.4
15 22.04 ЮЗ 2
{10}
20 км 10/0
[Ac As]
+6.8 -11.3 26 +6 +6 по сезону 1011.1 977.2 +10.2
18 22.04 ЮВ 2 10 км 10/0
[Ac As]
+5.5 -11.4 28 +4 +4 по сезону 1009.9 975.9
21 22.04 Ю 3 10 км 10/0
[Ac As]
+5.3 -7.1 40 +3 +3 по сезону 1008.3 974.3
00 23.04 ЮВ 4 10 км 10/0
[Ac As]
+5.4 -4.6 48 +2 +2 по сезону 1005.6 971.7
03 23.04 ЮВ 3
{10}
10 км в посл. час дождь 10/0
[Ac As]
+5.1 -4.2 51 +2 +3 по сезону 1003.2 969.3 +4.5
06 23.04 ЮВ 3
{10}
20 км {дождь} 9/3 600 м
[Sc Cs]
+8.1 -4.2 41 +6 +11 по сезону 1000.7 967.3
09 23.04 Ю 3 20 км слабый ливневой дождь 10/10 600 м
[Cb cap]
+5.8 +0.7 70 +3 +3 прохладно 1002.1 968.4
12 23.04 З 4 20 км {ливн. осадки} 10/10 600 м
[Cb calv]
+5.6 +0.6 70 +2 +2 холодно 1004.5 970.7
15 23.04 З 5 10 км 10/10 600 м
[Cb calv]
+5.0 +1.3 77 +1 +1 холодно 1007.2 973.2 +8.6
18 23.04 З 5-10
{10}
10 км 10/10 600 м
[Cb calv]
+4.1 0.0 75 -1 -1 прохладно 1010.9 976.7
21 23.04 З 3
{10}
10 км {ливн. осадки} 9/9 600 м
[Cb calv]
+3.9 +0.3 77 0 0 по сезону 1012.0 977.7
00 24.04 ЮЗ 2 10 км {ливн. осадки} 8/6 600 м
[Sc Cs]
+2.5 -0.3 82 -1 -1 по сезону 1014.3 979.8
03 24.04 ЮЗ 2 20 км 8/6 600 м
[Sc Cs]
+5.0 +0.6 73 +3 +4 по сезону 1015.5 981.3 +2.1
06 24.04 Ю 3 50 км 10/1 600 м
[Sc Ac trans Ci fib]
+11.1 -3.3 36 +10 +13 тепло 1014.3 980.8
09 24.04 Ю 5-10
{10}
50 км 10/0
[Ac As]
+9.4 -2.7 43 +7 +8 по сезону 1014.9 981.2
12 24.04 ЮВ 4
{11}
4000 м слабый дождь 10/0
[As op]
+5.2 +3.6 89 +1 +2 очень
холодно
1013.3 979.2
15 24.04 В 3 4000 м слабый дождь 10/0
[As op]
+5.2 +4.1 93 +2 +2 прохладно 1011.3 977.3 +12.4 6
18 24.04 ЮВ 3 50 км слабый дождь 10/0 300 м
[As op]
+6.2 +4.9 91 +3 +3 по сезону 1007.3 973.5
21 24.04 ЮВ 3 50 км в посл. час дождь 10/0
[Ac As]
+7.2 +5.3 88 +4 +4 по сезону 1003.8 970.2
00 25.04 ЮВ 3 50 км дымка {дождь} 10/4 600 м
[Sc diur, vesp Ac und]
+7.6 +5.6 87 +5 +5 тепло 1002.2 968.7
03 25.04 ЮЗ 5-10
{12}
10 км 4/4 600 м
[Cu Sc]
+9.5 +4.1 69 +6 +7 по сезону 1003.1 969.9 +5.3 7
06 25.04 ЮЗ 6-14
{14}
50 км 10/10 600 м
[Sc diur, vesp]
+9.3 +2.2 61 +6 +6 по сезону 1006.5 973.1
09 25.04 ЮЗ 7-13
{14}
50 км 4/4 1000 м
[Sc diur, vesp]
+12.5 +0.9 45 +10 +12 по сезону 1009.4 976.2
12 25.04 З 5-10
{13}
50 км 3/3 1000 м
[Cu hum]
+11.5 +0.2 46 +9 +11 по сезону 1012.5 979.2
15 25.04 З 4-11
{11}
20 км 8/8 600 м
[Sc diur, vesp]
+6.3 -1.3 58 +3 +3 прохладно 1016.3 982.1 +12.7
18 25.04 З 3
{11}
10 км 3/0
[Ci fib]
+5.0 -2.3 59 +2 +2 по сезону 1017.7 983.4
21 25.04 З 3 10 км 3/0
[Ci fib]
+3.3 -1.4 71 -0 -0 по сезону 1017.6 983.1
00 26.04 З 1 10 км ясно +2.0 -1.2 79 0 0 по сезону 1018.5 983.8
03 26.04 СЗ 3 10 км 8/0
[Ac trans Cc]
+3.6 -0.8 73 0 +2 прохладно 1019.5 985.0 +1.7
06 26.04 З 2 50 км 9/8 600 м
[Cb calv Cs]
+8.7 -0.6 52 +7 +9 по сезону 1019.1 985.2
09 26.04 СЗ 4 50 км 9/9 600 м
[Cb calv Cs]
+10.4 -3.4 38 +8 +9 по сезону 1018.5 984.8
12 26.04 С 3 50 км 10/8 600 м
[Cb calv Cs]
+11.1 -5.1 32 +10 +11 по сезону 1018.3 984.6
15 26.04 СЗ 3 50 км 8/4 600 м
[Cb calv Cs]
+9.6 -5.5 34 +8 +8 по сезону 1019.2 985.4 +11.4
18 26.04 СЗ 3 10 км ясно +6.1 -4.0 48 +4 +4 по сезону 1021.2 986.9
21 26.04 З 3 10 км ясно +3.3 -2.5 66 -0 -0 прохладно 1023.4 988.6
00 27.04 СЗ 3 10 км 3/3
[Sc]
+1.9 -1.4 79 -2 -2 прохладно 1024.8 989.9
03 27.04 З 2 20 км ясно +3.2 -0.6 76 0 +3 прохладно 1026.6 991.8 +1.4
06 27.04 СЗ 2 20 км ясно +9.1 -1.4 48 +8 +18 опасность
простуды
1026.0 991.9
09 27.04 З 3 50 км 3/0
[Cc]
+13.6 -4.6 28 +13 +22 тепло 1024.7 991.1
12 27.04 З 4 50 км 10/0
[Ci sp]
+15.1 -3.5 28 +14 +17 тепло 1023.0 989.7
15 27.04 ЮЗ 4
{10}
50 км 3/0
[Cs]
+14.4 -2.4 31 +13 +14 тепло 1022.1 988.7 +15.6
18 27.04 Ю 3 10 км ясно +11.3 -0.1 45 +10 +10 тепло 1022.6 988.9
21 27.04 З 3 10 км ясно +10.3 +0.8 52 +9 +9 тепло 1022.2 988.3

 

Местоположение метеостанции Екатеринбург (Свердловская область, Россия): широта 56.83 долгота 60.63 высота над уровнем моря 281 м.

В архиве по умолчанию представлена погода в Екатеринбурге за последнюю неделю. Архивные данные за месяц целиком и за предыдущие месяцы, начиная с января 2011 года, Вы можете получить, выбрав интересующий диапазон дат из раскрывающегося списка и нажав кнопку "Ввод!".

Внимание! Время в таблицах - всемирное. Для получения местного времени необходимо прибавить поправку, которая в Екатеринбурге равна 5 ч.

Смотрите также архив погоды в соседних городах и на ближайших метеорологических станциях:

Погода в Верхнем Дуброво (Свердловская область, Россия) (29 км)
Погода в Сысерти (Свердловская область, Россия) (38 км)
Погода в Ревде (Свердловская область, Россия) (40 км)
Погода в Невьянске (Свердловская область, Россия) (78 км)
Погода в Верхнем Уфалее (Челябинская область, Россия) (86 км)
Погода в Каменск-Уральском (Свердловская область, Россия) (88 км)
Погода в Бисерти (Свердловская область, Россия) (95 км)
Погода в Артемовском (Свердловская область, Россия) (98 км)
Погода в Михайловске (Свердловская область, Россия) (105 км)
Погода в Нязепетровске (Челябинская область, Россия) (108 км)

Пояснения к столбцам:

Ветер - указаны скорость ветра в м/с - средняя за 10 мин, порывы в срок и между сроками (в фигурных скобках) и направление, откуда дует ветер: С - северный, СВ - северо-восточный, В - восточный, ЮВ - юго-восточный, Ю - южный, ЮЗ - юго-западный, З - западный, СЗ - северо-западный.
Видимость - горизонтальная дальность видимости в метрах или километрах. При видимости от 1 до 10 км при отсутствии осадков обычно наблюдается дымка, при ухудшении видимости до 1 км и менее - туман. В сухую погоду видимость может ухудшаться дымом, пылью или мглою.
Явления - указаны атмосферные явления, наблюдавшиеся в срок или в последний час перед сроком; фигурными скобками обозначены явления, наблюдавшиеся между сроками (за 1-3 часа до срока); квадратными скобками обозначены град или гололедные отложения с указанием их диаметра в мм.
Облачность - указаны через наклонную черту общая и нижняя облачность в баллах и высота нижней границы облаков в метрах; квадратными скобками обозначены формы облаков: Ci - перистые, Cs - перисто-слоистые, Cc - перисто-кучевые, Ac - высококучевые, As - высокослоистые, Sc - слоисто-кучевые, Ns - слоисто-дождевые, Cu - кучевые, Cb - кучево-дождевые. Подробнее классификацию облаков см. в Атласе облаков (PDF).
T - Температура воздуха - температура, измеренная на высоте 2 м над землей.
Td - Температура точки росы - температура, при понижении до которой содержащийся в воздухе водяной пар достигнет насыщения.
f - Относительная влажность воздуха - влажноcть воздуха, измеренная на высоте 2 м над землей.
Te - Эффективная температура - температура, которую ощущает одетый по сезону человек в тени. Характеристика душности погоды. При расчете учитывается влияние влажности воздуха и скорости ветра на теплоощущения человека.
Tes - Эффективная температура на солнце - температура, которую ощущает человек, с поправкой на солнечный нагрев. Характеристика знойности погоды. Зависит от высоты солнца над горизонтом, облачности и скорости ветра. Ночью, в пасмурную погоду, а также при ветре 12 м/с и более поправка равна нулю.
P - Атмосферное давление - приведенное к уровню моря атмосферное давление.
Po - Атмосферное давление - измеренное на уровне метеостанции атмосферное давление.
Tmin - Минимальная температура - минимум температуры воздуха на высоте 2 м над землей.
Tmax - Максимальная температура - максимум температуры воздуха на высоте 2 м над землей.
R - Количество осадков - Количество выпавших осадков за период времени, мм. При наведении курсора мыши на число - период времени, за который выпало указанное количество осадков.
R24 - Количество осадков - Количество выпавших осадков за 24 часа, мм.
S - Снежный покров - Высота снежного покрова, см. При наведении курсора мыши на число - состояние снежного покрова и степень покрытия местности в баллах.